| time (UTC) | temp C | wind direction | speed KPH | gust KPH | rain 1hr cm | rain 24hr cm | rain mn cm | humidity % | barometer mb |
| 20260504151005 | 14 | 330 | 11.3 | 24.1 | 0.00 | 0.00 | 0.00 | 50 | 998.7 |
| 20260504150505 | 14 | 334 | 17.7 | 24.1 | 0.00 | 0.00 | 0.00 | 47 | 998.7 |
| 20260504141008 | 14 | 305 | 19.3 | 37.0 | 0.00 | 0.00 | 0.00 | 44 | 998.4 |
| 20260504140502 | 15 | 298 | 16.1 | 32.2 | 0.00 | 0.00 | 0.00 | 50 | 998.3 |
| 20260504130511 | 15 | 307 | 8.0 | 17.7 | 0.00 | 0.00 | 0.00 | 53 | 997.2 |
| 20260504110511 | 13 | 337 | 3.2 | 9.7 | 0.00 | 0.00 | 0.00 | 49 | 996.1 |
| 20260504100505 | 12 | 249 | 0.0 | 9.7 | 0.00 | 0.00 | 0.00 | 49 | 996.5 |
| 20260504082003 | 12 | 283 | 0.0 | 4.8 | 0.00 | 0.00 | 0.00 | 49 | 998.3 |
| 20260504081513 | 12 | 217 | 0.0 | 4.8 | 0.00 | 0.00 | 0.00 | 50 | 998.3 |
| 20260504081009 | 12 | 261 | 0.0 | 4.8 | 0.00 | 0.00 | 0.00 | 49 | 998.5 |
| 20260504080507 | 12 | 345 | 0.0 | 4.8 | 0.00 | 0.00 | 0.00 | 50 | 998.6 |
| 20260504050513 | 11 | 260 | 0.0 | 0.0 | 0.00 | 0.00 | 0.00 | 62 | 1001.6 |
| 20260504045510 | 11 | 260 | 0.0 | 0.0 | 0.00 | 0.00 | 0.00 | 62 | 1001.8 |
| 20260504045009 | 11 | 260 | 0.0 | 0.0 | 0.00 | 0.00 | 0.00 | 61 | 1001.9 |
| 20260504044528 | 11 | 260 | 0.0 | 0.0 | 0.00 | 0.00 | 0.00 | 58 | 1002.1 |
| 20260504044010 | 11 | 260 | 0.0 | 0.0 | 0.00 | 0.00 | 0.00 | 54 | 1002.2 |
| 20260504043510 | 11 | 260 | 0.0 | 0.0 | 0.00 | 0.00 | 0.00 | 54 | 1002.4 |
| 20260504043018 | 11 | 260 | 0.0 | 0.0 | 0.00 | 0.00 | 0.00 | 55 | 1002.5 |
| 20260504042508 | 11 | 260 | 0.0 | 0.0 | 0.00 | 0.00 | 0.00 | 55 | 1002.5 |
| 20260504042007 | 11 | 260 | 0.0 | 0.0 | 0.00 | 0.00 | 0.00 | 55 | 1002.6 |
| 20260504041524 | 11 | 260 | 0.0 | 0.0 | 0.00 | 0.00 | 0.00 | 56 | 1002.6 |
| 20260504041010 | 11 | 260 | 0.0 | 0.0 | 0.00 | 0.00 | 0.00 | 55 | 1002.7 |
| 20260504040510 | 11 | 260 | 0.0 | 0.0 | 0.00 | 0.00 | 0.00 | 54 | 1002.8 |
| 20260504040020 | 11 | 260 | 0.0 | 0.0 | 0.00 | 0.00 | 0.00 | 53 | 1002.9 |
| 20260504035506 | 11 | 260 | 0.0 | 0.0 | 0.00 | 0.00 | 0.00 | 52 | 1002.9 |
| 20260504035008 | 11 | 260 | 0.0 | 0.0 | 0.00 | 0.00 | 0.00 | 52 | 1003.1 |
| 20260504034513 | 11 | 260 | 0.0 | 0.0 | 0.00 | 0.00 | 0.00 | 50 | 1003.1 |
| 20260504034005 | 12 | 260 | 0.0 | 0.0 | 0.00 | 0.00 | 0.00 | 49 | 1003.1 |
| 20260504033505 | 12 | 260 | 0.0 | 0.0 | 0.00 | 0.00 | 0.00 | 48 | 1003.2 |
| 20260504033033 | 12 | 260 | 0.0 | 0.0 | 0.00 | 0.00 | 0.00 | 50 | 1003.3 |
| 20260504032505 | 12 | 260 | 0.0 | 0.0 | 0.00 | 0.00 | 0.00 | 50 | 1003.4 |
| 20260504032008 | 12 | 260 | 0.0 | 0.0 | 0.00 | 0.00 | 0.00 | 53 | 1003.4 |
| 20260504031524 | 12 | 260 | 0.0 | 0.0 | 0.00 | 0.00 | 0.00 | 52 | 1003.4 |
| 20260504031008 | 12 | 260 | 0.0 | 0.0 | 0.00 | 0.00 | 0.00 | 56 | 1003.5 |
| 20260504030502 | 12 | 260 | 0.0 | 0.0 | 0.00 | 0.00 | 0.00 | 52 | 1003.5 |
| 20260504030009 | 13 | 260 | 0.0 | 0.0 | 0.00 | 0.00 | 0.00 | 52 | 1003.6 |
| 20260504025502 | 13 | 260 | 0.0 | 0.0 | 0.00 | 0.00 | 0.00 | 53 | 1003.7 |
| 20260504025004 | 13 | 260 | 0.0 | 0.0 | 0.00 | 0.00 | 0.00 | 49 | 1003.6 |
| 20260504024510 | 13 | 260 | 0.0 | 0.0 | 0.00 | 0.00 | 0.00 | 45 | 1003.6 |
| 20260504024008 | 13 | 260 | 0.0 | 0.0 | 0.00 | 0.00 | 0.00 | 51 | 1003.6 |
| 20260504023505 | 14 | 260 | 0.0 | 0.0 | 0.00 | 0.00 | 0.00 | 49 | 1003.6 |
| 20260504023014 | 14 | 260 | 0.0 | 0.0 | 0.00 | 0.00 | 0.00 | 50 | 1003.7 |
| 20260504022509 | 15 | 260 | 0.0 | 0.0 | 0.00 | 0.00 | 0.00 | 46 | 1003.7 |
| 20260504022008 | 15 | 260 | 0.0 | 0.0 | 0.00 | 0.00 | 0.00 | 45 | 1003.7 |
| 20260504021518 | 15 | 260 | 0.0 | 0.0 | 0.00 | 0.00 | 0.00 | 47 | 1003.7 |
| 20260504021006 | 16 | 260 | 0.0 | 0.0 | 0.00 | 0.00 | 0.00 | 50 | 1003.7 |
| 20260504020512 | 16 | 260 | 0.0 | 0.0 | 0.00 | 0.00 | 0.00 | 45 | 1003.7 |
| 20260504020025 | 16 | 260 | 0.0 | 0.0 | 0.00 | 0.00 | 0.00 | 43 | 1003.7 |
| 20260504015509 | 16 | 260 | 0.0 | 0.0 | 0.00 | 0.00 | 0.00 | 40 | 1003.7 |
| 20260504015001 | 17 | 260 | 0.0 | 0.0 | 0.00 | 0.00 | 0.00 | 39 | 1003.8 |
| 20260504014520 | 17 | 260 | 0.0 | 0.0 | 0.00 | 0.00 | 0.00 | 42 | 1003.8 |
| 20260504014002 | 17 | 260 | 0.0 | 0.0 | 0.00 | 0.00 | 0.00 | 33 | 1003.9 |
| 20260504013509 | 17 | 260 | 0.0 | 1.6 | 0.00 | 0.00 | 0.00 | 32 | 1003.9 |
| 20260504013012 | 17 | 260 | 0.0 | 1.6 | 0.00 | 0.00 | 0.00 | 30 | 1004.0 |
| 20260504012510 | 18 | 260 | 0.0 | 3.2 | 0.00 | 0.00 | 0.00 | 30 | 1004.0 |
| 20260504012008 | 18 | 260 | 0.0 | 4.8 | 0.00 | 0.00 | 0.00 | 30 | 1004.1 |
| 20260504011518 | 18 | 269 | 1.6 | 4.8 | 0.00 | 0.00 | 0.00 | 30 | 1004.1 |
| 20260504011007 | 18 | 244 | 1.6 | 4.8 | 0.00 | 0.00 | 0.00 | 31 | 1004.0 |
| 20260504010507 | 18 | 257 | 1.6 | 6.4 | 0.00 | 0.00 | 0.00 | 29 | 1004.0 |
| 20260504010020 | 19 | 292 | 3.2 | 8.0 | 0.00 | 0.00 | 0.00 | 31 | 1004.1 |
| 20260504005510 | 19 | 256 | 1.6 | 8.0 | 0.00 | 0.00 | 0.00 | 30 | 1004.1 |
| 20260504005009 | 19 | 285 | 3.2 | 9.7 | 0.00 | 0.00 | 0.00 | 31 | 1004.2 |
| 20260504004540 | 19 | 277 | 4.8 | 9.7 | 0.00 | 0.00 | 0.00 | 28 | 1004.2 |
| 20260504004009 | 20 | 308 | 3.2 | 9.7 | 0.00 | 0.00 | 0.00 | 31 | 1004.2 |
| 20260504003505 | 20 | 294 | 4.8 | 12.9 | 0.00 | 0.00 | 0.00 | 29 | 1004.2 |
| 20260504003010 | 20 | 297 | 6.4 | 17.7 | 0.00 | 0.00 | 0.00 | 30 | 1004.2 |
| 20260504002503 | 20 | 293 | 9.7 | 17.7 | 0.00 | 0.00 | 0.00 | 32 | 1004.2 |
| 20260504002005 | 20 | 311 | 6.4 | 11.3 | 0.00 | 0.00 | 0.00 | 32 | 1004.3 |
| 20260504001517 | 20 | 293 | 4.8 | 9.7 | 0.00 | 0.00 | 0.00 | 31 | 1004.4 |
| 20260504001011 | 20 | 288 | 4.8 | 11.3 | 0.00 | 0.00 | 0.00 | 32 | 1004.4 |
| 20260504000506 | 20 | 293 | 4.8 | 12.9 | 0.00 | 0.00 | 0.00 | 32 | 1004.4 |
| 20260504000018 | 20 | 290 | 6.4 | 14.5 | 0.00 | 0.00 | 0.00 | 32 | 1004.4 |
| 20260503235510 | 20 | 322 | 6.4 | 14.5 | 0.00 | 0.00 | 0.00 | 32 | 1004.3 |
| 20260503235006 | 20 | 307 | 8.0 | 16.1 | 0.00 | 0.00 | 0.00 | 29 | 1004.2 |
| 20260503234524 | 21 | 291 | 8.0 | 16.1 | 0.00 | 0.00 | 0.00 | 27 | 1004.3 |
| 20260503234010 | 21 | 266 | 4.8 | 19.3 | 0.00 | 0.00 | 0.00 | 28 | 1004.3 |
| 20260503233510 | 20 | 296 | 6.4 | 19.3 | 0.00 | 0.00 | 0.00 | 29 | 1004.4 |
| 20260503233028 | 20 | 287 | 9.7 | 17.7 | 0.00 | 0.00 | 0.00 | 30 | 1004.4 |
| 20260503232509 | 20 | 318 | 4.8 | 11.3 | 0.00 | 0.00 | 0.00 | 30 | 1004.5 |
| 20260503232002 | 20 | 323 | 6.4 | 11.3 | 0.00 | 0.00 | 0.00 | 33 | 1004.6 |
| 20260503231512 | 20 | 304 | 4.8 | 19.3 | 0.00 | 0.00 | 0.00 | 29 | 1004.7 |
| 20260503231007 | 20 | 318 | 9.7 | 19.3 | 0.00 | 0.00 | 0.00 | 31 | 1004.7 |
| 20260503230504 | 20 | 323 | 6.4 | 14.5 | 0.00 | 0.00 | 0.00 | 30 | 1004.7 |
| 20260503230015 | 20 | 295 | 8.0 | 14.5 | 0.00 | 0.00 | 0.00 | 33 | 1004.7 |
| 20260503225506 | 20 | 312 | 3.2 | 12.9 | 0.00 | 0.00 | 0.00 | 33 | 1004.7 |
| 20260503225014 | 20 | 278 | 6.4 | 14.5 | 0.00 | 0.00 | 0.00 | 30 | 1004.8 |
| 20260503224524 | 20 | 293 | 8.0 | 14.5 | 0.00 | 0.00 | 0.00 | 36 | 1004.8 |
| 20260503224007 | 20 | 325 | 6.4 | 17.7 | 0.00 | 0.00 | 0.00 | 31 | 1004.8 |
| 20260503223507 | 20 | 350 | 8.0 | 17.7 | 0.00 | 0.00 | 0.00 | 31 | 1004.9 |
| 20260503223026 | 20 | 310 | 6.4 | 16.1 | 0.00 | 0.00 | 0.00 | 31 | 1005.0 |
| 20260503222509 | 20 | 354 | 9.7 | 16.1 | 0.00 | 0.00 | 0.00 | 30 | 1005.0 |
| 20260503222010 | 20 | 316 | 9.7 | 24.1 | 0.00 | 0.00 | 0.00 | 31 | 1005.0 |
| 20260503221527 | 20 | 292 | 11.3 | 24.1 | 0.00 | 0.00 | 0.00 | 30 | 1004.9 |
| 20260503221010 | 20 | 287 | 12.9 | 24.1 | 0.00 | 0.00 | 0.00 | 29 | 1005.0 |
| 20260503220512 | 20 | 243 | 8.0 | 24.1 | 0.00 | 0.00 | 0.00 | 32 | 1005.0 |
| 20260503220012 | 20 | 297 | 11.3 | 19.3 | 0.00 | 0.00 | 0.00 | 30 | 1005.0 |
| 20260503215504 | 20 | 271 | 11.3 | 19.3 | 0.00 | 0.00 | 0.00 | 28 | 1005.0 |
| 20260503215007 | 20 | 316 | 9.7 | 22.5 | 0.00 | 0.00 | 0.00 | 34 | 1005.0 |
| 20260503214505 | 20 | 278 | 11.3 | 22.5 | 0.00 | 0.00 | 0.00 | 28 | 1004.9 |
| 20260503214002 | 19 | 327 | 12.9 | 17.7 | 0.00 | 0.00 | 0.00 | 33 | 1004.9 |
| 20260503213506 | 19 | 347 | 9.7 | 17.7 | 0.00 | 0.00 | 0.00 | 35 | 1005.1 |
| 20260503213004 | 20 | 354 | 8.0 | 17.7 | 0.00 | 0.00 | 0.00 | 33 | 1005.2 |
| 20260503212504 | 20 | 309 | 8.0 | 16.1 | 0.00 | 0.00 | 0.00 | 35 | 1005.1 |
| 20260503212005 | 19 | 310 | 9.7 | 19.3 | 0.00 | 0.00 | 0.00 | 32 | 1005.1 |
| 20260503211508 | 19 | 347 | 11.3 | 19.3 | 0.00 | 0.00 | 0.00 | 35 | 1005.2 |
| 20260503211007 | 19 | 283 | 8.0 | 17.7 | 0.00 | 0.00 | 0.00 | 38 | 1005.2 |
| 20260503210503 | 20 | 320 | 11.3 | 17.7 | 0.00 | 0.00 | 0.00 | 36 | 1005.2 |
| 20260503210013 | 19 | 304 | 6.4 | 14.5 | 0.00 | 0.00 | 0.00 | 38 | 1005.2 |
| 20260503205505 | 19 | 317 | 6.4 | 14.5 | 0.00 | 0.00 | 0.00 | 36 | 1005.3 |
| 20260503205007 | 19 | 342 | 8.0 | 17.7 | 0.00 | 0.00 | 0.00 | 35 | 1005.4 |
| 20260503204520 | 20 | 338 | 8.0 | 17.7 | 0.00 | 0.00 | 0.00 | 32 | 1005.5 |
| 20260503204014 | 20 | 294 | 6.4 | 17.7 | 0.00 | 0.00 | 0.00 | 34 | 1005.5 |
| 20260503203506 | 19 | 313 | 6.4 | 19.3 | 0.00 | 0.00 | 0.00 | 32 | 1005.5 |
| 20260503203008 | 19 | 316 | 9.7 | 19.3 | 0.00 | 0.00 | 0.00 | 32 | 1005.7 |
| 20260503202508 | 19 | 313 | 11.3 | 17.7 | 0.00 | 0.00 | 0.00 | 30 | 1005.8 |
| 20260503202003 | 19 | 290 | 9.7 | 19.3 | 0.00 | 0.00 | 0.00 | 35 | 1005.8 |
| 20260503201520 | 19 | 295 | 11.3 | 19.3 | 0.00 | 0.00 | 0.00 | 32 | 1005.9 |
| 20260503201002 | 19 | 297 | 4.8 | 16.1 | 0.00 | 0.00 | 0.00 | 34 | 1005.9 |
| 20260503200504 | 18 | 331 | 6.4 | 16.1 | 0.00 | 0.00 | 0.00 | 34 | 1006.0 |
| 20260503200011 | 18 | 325 | 11.3 | 19.3 | 0.00 | 0.00 | 0.00 | 33 | 1006.2 |
| 20260503195507 | 18 | 2 | 11.3 | 19.3 | 0.00 | 0.00 | 0.00 | 32 | 1006.2 |
| 20260503195006 | 19 | 314 | 9.7 | 17.7 | 0.00 | 0.00 | 0.00 | 32 | 1006.3 |
| 20260503194517 | 19 | 28 | 9.7 | 22.5 | 0.00 | 0.00 | 0.00 | 32 | 1006.3 |
| 20260503194006 | 18 | 288 | 14.5 | 22.5 | 0.00 | 0.00 | 0.00 | 32 | 1006.3 |
| 20260503193510 | 18 | 331 | 6.4 | 19.3 | 0.00 | 0.00 | 0.00 | 37 | 1006.3 |
| 20260503193035 | 18 | 324 | 9.7 | 19.3 | 0.00 | 0.00 | 0.00 | 37 | 1006.3 |
| 20260503192506 | 18 | 326 | 9.7 | 16.1 | 0.00 | 0.00 | 0.00 | 31 | 1006.2 |
| 20260503192007 | 18 | 315 | 6.4 | 19.3 | 0.00 | 0.00 | 0.00 | 33 | 1006.4 |
| 20260503191518 | 18 | 344 | 12.9 | 19.3 | 0.00 | 0.00 | 0.00 | 34 | 1006.4 |
| 20260503191003 | 18 | 8 | 8.0 | 20.9 | 0.00 | 0.00 | 0.00 | 36 | 1006.3 |
| 20260503190506 | 18 | 330 | 11.3 | 20.9 | 0.00 | 0.00 | 0.00 | 40 | 1006.4 |
| 20260503190009 | 18 | 314 | 9.7 | 22.5 | 0.00 | 0.00 | 0.00 | 42 | 1006.4 |
| 20260503185503 | 18 | 324 | 9.7 | 22.5 | 0.00 | 0.00 | 0.00 | 39 | 1006.4 |
| 20260503185003 | 18 | 330 | 6.4 | 17.7 | 0.00 | 0.00 | 0.00 | 36 | 1006.4 |
| 20260503184521 | 18 | 1 | 8.0 | 19.3 | 0.00 | 0.00 | 0.00 | 40 | 1006.5 |
| 20260503184006 | 18 | 307 | 12.9 | 19.3 | 0.00 | 0.00 | 0.00 | 40 | 1006.5 |
| 20260503183507 | 18 | 324 | 8.0 | 16.1 | 0.00 | 0.00 | 0.00 | 40 | 1006.4 |
| 20260503183018 | 18 | 321 | 9.7 | 16.1 | 0.00 | 0.00 | 0.00 | 39 | 1006.5 |
| 20260503182507 | 18 | 4 | 8.0 | 16.1 | 0.00 | 0.00 | 0.00 | 38 | 1006.6 |
| 20260503182007 | 18 | 61 | 4.8 | 19.3 | 0.00 | 0.00 | 0.00 | 39 | 1006.6 |
| 20260503181524 | 18 | 356 | 9.7 | 22.5 | 0.00 | 0.00 | 0.00 | 38 | 1006.6 |
| 20260503181008 | 18 | 288 | 9.7 | 22.5 | 0.00 | 0.00 | 0.00 | 41 | 1006.8 |
| 20260503180506 | 17 | 301 | 11.3 | 19.3 | 0.00 | 0.00 | 0.00 | 39 | 1006.7 |
| 20260503180022 | 17 | 34 | 8.0 | 19.3 | 0.00 | 0.00 | 0.00 | 41 | 1006.7 |
| 20260503175502 | 17 | 267 | 8.0 | 22.5 | 0.00 | 0.00 | 0.00 | 43 | 1006.7 |
| 20260503175006 | 17 | 322 | 14.5 | 22.5 | 0.00 | 0.00 | 0.00 | 42 | 1006.7 |
| 20260503174510 | 17 | 302 | 11.3 | 22.5 | 0.00 | 0.00 | 0.00 | 45 | 1006.7 |
| 20260503174003 | 17 | 262 | 12.9 | 22.5 | 0.00 | 0.00 | 0.00 | 42 | 1006.8 |
| 20260503173506 | 17 | 324 | 11.3 | 19.3 | 0.00 | 0.00 | 0.00 | 43 | 1006.7 |
| 20260503173022 | 17 | 332 | 9.7 | 27.4 | 0.00 | 0.00 | 0.00 | 39 | 1006.7 |
| 20260503172508 | 17 | 318 | 11.3 | 27.4 | 0.00 | 0.00 | 0.00 | 44 | 1006.6 |
| 20260503172005 | 17 | 349 | 6.4 | 19.3 | 0.00 | 0.00 | 0.00 | 46 | 1006.7 |
| 20260503171524 | 17 | 358 | 11.3 | 19.3 | 0.00 | 0.00 | 0.00 | 45 | 1006.8 |
| 20260503171008 | 17 | 330 | 9.7 | 19.3 | 0.00 | 0.00 | 0.00 | 47 | 1006.8 |
| 20260503170507 | 17 | 305 | 4.8 | 16.1 | 0.00 | 0.00 | 0.00 | 45 | 1006.7 |